EW4405 Weather Reports


time (UTC)temp
C
wind
direction
speed
KPH
gust
KPH
rain 1hr
cm
rain 24hr
cm
rain mn
cm
humidity
%
barometer
mb
20260502163108 20 64 6.4 16.1 0.00 3.28 0.00 63 1020.2
20260502162346 19 30 6.4 17.7 0.00 3.38 0.00 63 1020.1
20260502161847 19 46 8.0 17.7 0.00 3.61 0.00 62 1020.1
20260502161347 19 65 9.7 17.7 0.00 3.99 0.00 64 1020.2
20260502160846 18 38 9.7 19.3 0.00 4.09 0.00 64 1020.2
20260502160346 18 65 6.4 19.3 0.00 4.09 0.00 67 1020.2
20260502151847 17 58 8.0 20.9 0.00 4.27 0.00 70 1020.0
20260502151347 17 0 6.4 14.5 0.00 4.27 0.00 71 1020.0
20260502151113 17 0 6.4 16.1 0.00 4.27 0.00 71 1020.1
20260502150347 17 0 6.4 16.1 0.00 4.27 0.00 72 1020.1
20260502130319 13 0 4.8 11.3 0.00 4.29 0.00 84 1018.8
20260502123318 12 0 4.8 11.3 0.00 4.29 0.00 85 1018.4
20260502122812 12 0 3.2 9.7 0.00 4.32 0.00 85 1018.2
20260502122538 12 0 4.8 9.7 0.00 4.32 0.00 85 1018.2
20260502122039 12 0 3.2 9.7 0.00 4.32 0.00 85 1018.1
20260502121313 12 0 3.2 9.7 0.00 4.32 0.00 85 1018.0
20260502120813 12 0 4.8 11.3 0.00 4.34 0.00 85 1017.9
20260502120310 12 0 4.8 11.3 0.00 4.34 0.00 85 1018.0
20260502115811 12 43 4.8 11.3 0.00 4.34 0.00 85 1017.8
20260502115312 12 48 4.8 12.9 0.00 4.34 0.00 84 1017.8
20260502114813 12 63 4.8 12.9 0.00 4.34 0.00 84 1017.7
20260502114530 12 66 4.8 11.3 0.00 4.34 0.00 84 1017.7
20260502113811 12 75 4.8 14.5 0.00 4.34 0.00 84 1017.6
20260502113312 12 54 4.8 14.5 0.00 4.34 0.00 84 1017.6
20260502112812 12 48 4.8 11.3 0.00 4.34 0.00 84 1017.6
20260502112310 12 0 4.8 11.3 0.00 4.34 0.00 84 1017.6
20260502112034 12 0 3.2 11.3 0.00 4.34 0.00 84 1017.4
20260502111303 12 0 3.2 11.3 0.00 4.34 0.00 84 1017.4
20260502110804 12 0 3.2 8.0 0.00 4.34 0.00 84 1017.5
20260502110301 12 0 3.2 8.0 0.00 4.34 0.00 83 1017.4
20260502105759 12 0 3.2 8.0 0.00 4.34 0.00 83 1017.5
20260502105300 12 0 1.6 8.0 0.00 4.34 0.00 83 1017.4
20260502104759 12 0 3.2 6.4 0.00 4.34 0.00 83 1017.3
20260502104258 12 0 1.6 6.4 0.00 4.34 0.00 83 1017.2
20260502103758 12 0 1.6 6.4 0.00 4.34 0.00 83 1017.0
20260502103257 12 0 3.2 6.4 0.00 4.34 0.00 83 1016.9
20260502103017 12 0 3.2 12.9 0.00 4.34 0.00 82 1016.9
20260502102522 12 58 3.2 12.9 0.00 4.34 0.00 82 1016.8
20260502101750 12 63 3.2 6.4 0.00 4.34 0.00 82 1016.8
20260502101252 12 59 3.2 8.0 0.00 4.34 0.00 81 1016.6
20260502101010 12 58 3.2 8.0 0.00 4.34 0.00 81 1016.6
20260502100514 12 49 4.8 11.3 0.00 4.34 0.00 81 1016.4
20260502091252 13 66 4.8 12.9 0.00 4.34 0.00 83 1015.7
20260502090751 13 56 4.8 12.9 0.00 4.34 0.00 83 1015.6
20260502090250 13 69 3.2 11.3 0.00 4.34 0.00 84 1015.7
20260502071145 13 67 6.4 17.7 0.00 4.60 0.00 84 1015.4
20260502070644 13 42 8.0 19.3 0.00 4.62 0.00 84 1015.4
20260502070143 13 63 8.0 19.3 0.00 4.65 0.00 84 1015.5
20260502065912 13 45 6.4 14.5 0.00 4.65 0.00 84 1015.5
20260502065141 13 67 8.0 16.1 0.00 4.67 0.00 84 1015.5
20260502064642 13 59 8.0 16.1 0.00 4.70 0.00 84 1015.5
20260502064142 13 51 6.4 17.7 0.00 4.72 0.00 85 1015.4
20260502063900 13 55 6.4 17.7 0.00 4.75 0.00 85 1015.3
20260502063139 13 38 6.4 14.5 0.00 4.75 0.00 85 1015.2
20260502062640 13 49 6.4 14.5 0.00 4.80 0.00 85 1015.2
20260502062138 13 46 6.4 14.5 0.00 4.80 0.00 85 1015.2
20260502062121 13 69 6.4 19.3 0.00 4.83 0.00 85 1015.1
20260502061138 13 51 6.4 19.3 0.00 4.85 0.00 85 1015.0
20260502060631 13 59 6.4 14.5 0.00 4.88 0.00 85 1015.1
20260502060125 13 62 6.4 14.5 0.00 4.90 0.00 85 1015.1
20260502055625 13 51 8.0 16.1 0.00 4.93 0.00 85 1015.1
20260502055125 13 51 9.7 25.7 0.00 4.95 0.00 85 1015.1
20260502054625 13 67 9.7 25.7 0.00 4.98 0.00 85 1014.9
20260502054124 13 51 9.7 22.5 0.00 5.00 0.00 86 1015.0
20260502053625 13 66 9.7 22.5 0.00 5.03 0.00 86 1015.0
20260502053127 13 69 9.7 17.7 0.00 5.08 0.00 86 1015.0
20260502052625 13 59 9.7 17.7 0.00 5.11 0.00 86 1015.0
20260502052343 13 60 8.0 17.7 0.00 5.16 0.00 86 1014.9
20260502051626 13 50 9.7 17.7 0.00 5.18 0.00 86 1015.1
20260502051126 13 57 9.7 19.3 0.00 5.23 0.00 86 1015.1
20260502050625 13 63 9.7 19.3 0.00 5.28 0.00 87 1015.0
20260502050124 13 55 9.7 17.7 0.00 5.36 0.00 87 1015.0
20260502045624 13 59 9.7 20.9 0.00 5.38 5.36 87 1014.9
20260502045123 13 49 8.0 20.9 0.00 5.41 5.36 88 1014.9
20260502044624 13 38 8.0 16.1 0.00 5.41 5.36 88 1014.9
20260502044123 13 53 8.0 14.5 0.00 5.41 5.36 88 1014.9
20260502043623 13 69 6.4 14.5 0.00 5.41 5.36 88 1015.0
20260502043124 13 68 6.4 16.1 0.00 5.41 5.36 89 1015.1
20260502042625 13 67 8.0 17.7 0.00 5.41 5.36 89 1015.0
20260502042123 13 44 8.0 17.7 0.00 5.41 5.36 89 1015.0
20260502041853 13 49 8.0 17.7 0.00 5.41 5.36 90 1015.0
20260502041124 13 54 8.0 17.7 0.00 5.41 5.36 90 1014.9
20260502040623 13 61 6.4 14.5 0.00 5.41 5.36 90 1015.0
20260502040122 13 58 6.4 16.1 0.00 5.41 5.36 90 1015.0
20260502035621 13 45 8.0 17.7 0.00 5.41 5.36 90 1014.9
20260502035121 13 42 8.0 17.7 0.00 5.41 5.36 90 1014.8
20260502034619 13 35 8.0 17.7 0.00 5.41 5.36 90 1014.8
20260502034118 13 67 6.4 17.7 0.00 5.41 5.36 90 1014.7
20260502033618 13 46 6.4 17.7 0.00 5.41 5.36 90 1014.5
20260502033118 13 40 6.4 17.7 0.00 5.41 5.36 90 1014.5
20260502032612 13 66 8.0 17.7 0.03 5.41 5.36 90 1014.4
20260502032110 13 30 6.4 16.1 0.03 5.41 5.36 90 1014.3
20260502031825 13 43 4.8 17.7 0.03 5.41 5.36 90 1014.2
20260502031703 13 39 4.8 12.9 0.03 5.41 5.36 90 1014.1
20260502030555 13 49 8.0 17.7 0.05 5.41 5.36 90 1014.2
20260502030049 13 53 8.0 16.1 0.05 5.41 5.36 90 1013.4
20260502025544 13 36 8.0 16.1 0.08 5.41 5.36 90 1013.1
20260502025033 13 45 6.4 19.3 0.08 5.41 5.36 90 1013.3
20260502024530 14 49 8.0 19.3 0.08 5.41 5.36 90 1013.3
20260502024022 14 65 8.0 17.7 0.08 5.41 5.36 90 1013.1
20260502023511 14 42 6.4 17.7 0.08 5.41 5.36 90 1013.1
20260502023005 15 47 6.4 17.7 0.08 5.41 5.36 91 1012.7
20260502022459 15 58 6.4 14.5 0.05 5.38 5.33 91 1012.8
20260502021951 14 67 6.4 14.5 0.05 5.38 5.33 91 1012.9
20260502021443 14 41 6.4 12.9 0.05 5.38 5.33 90 1012.9
20260502020938 14 42 6.4 12.9 0.03 5.36 5.33 90 1012.9
20260502020429 14 34 6.4 12.9 0.05 5.36 5.31 90 1012.9
20260502015921 14 49 6.4 16.1 0.05 5.36 5.31 90 1013.0
20260502015415 14 74 6.4 16.1 0.05 5.33 5.28 90 1013.1
20260502014907 14 44 6.4 17.7 0.05 5.33 5.28 90 1013.1
20260502014359 15 39 6.4 17.7 0.05 5.33 5.28 90 1013.0
20260502013854 15 33 4.8 12.9 0.05 5.33 5.28 90 1012.7
20260502013343 15 49 4.8 11.3 0.05 5.33 5.28 91 1012.6
20260502012837 15 43 4.8 14.5 0.05 5.33 5.28 90 1012.7
20260502012333 15 28 6.4 14.5 0.05 5.33 5.28 90 1012.6
20260502011821 15 43 6.4 14.5 0.05 5.33 5.28 90 1012.1
20260502011316 15 46 6.4 14.5 0.05 5.33 5.28 90 1011.8
20260502010811 15 55 6.4 14.5 0.08 5.33 5.28 90 1011.8
20260502010300 15 40 6.4 12.9 0.08 5.31 5.26 90 1011.9
20260502005759 15 42 4.8 9.7 0.10 5.28 5.26 90 1011.9
20260502005247 15 40 4.8 11.3 0.18 5.28 5.23 90 1012.0
20260502004739 15 36 4.8 11.3 0.20 5.28 5.23 90 1011.8
20260502004451 15 32 4.8 16.1 0.25 5.28 5.23 91 1011.6
20260502003725 15 51 6.4 16.1 0.28 5.28 5.23 91 1011.2
20260502003438 15 67 6.4 12.9 0.28 5.28 5.23 91 1010.9
20260502002711 15 40 8.0 14.5 0.30 5.28 5.23 90 1010.7
20260502002203 15 69 8.0 17.7 0.36 5.28 5.23 90 1010.7
20260502001654 15 47 8.0 17.7 0.41 5.28 5.23 90 1011.0
20260502001148 15 35 8.0 19.3 0.43 5.28 5.23 90 1011.1
20260502000643 15 49 8.0 19.3 0.43 5.26 5.21 90 1011.0
20260502000132 15 44 6.4 14.5 0.41 5.23 5.18 90 1010.9
20260501235626 15 48 6.4 14.5 0.38 5.16 5.13 90 1011.1
20260501235119 15 57 6.4 16.1 0.30 5.08 5.03 90 1011.2
20260501234609 15 51 8.0 16.1 0.33 5.05 5.00 90 1010.9
20260501234104 15 38 9.7 19.3 0.30 5.03 4.98 90 1010.4
20260501233557 15 46 9.7 19.3 0.28 5.00 4.95 90 1010.0
20260501233047 15 35 11.3 22.5 0.25 4.98 4.93 90 1008.9
20260501232036 15 67 9.7 20.9 0.18 4.90 4.88 90 1009.8
20260501231526 15 28 9.7 17.7 0.15 4.88 4.83 90 1010.3
20260501231025 16 53 9.7 17.7 0.10 4.83 4.80 90 1010.1
20260501230529 16 53 8.0 16.1 0.10 4.83 4.78 90 1009.8
20260501230523 16 46 6.4 14.5 0.08 4.80 4.78 90 1009.9
20260501225524 16 36 4.8 12.9 0.05 4.78 4.72 90 1010.0
20260501225024 16 53 4.8 12.9 0.03 4.75 4.72 91 1009.9
20260501224526 16 42 6.4 14.5 0.03 4.72 4.67 91 1010.0
20260501224254 16 62 6.4 16.1 0.08 4.72 4.67 90 1009.7
20260501223525 16 63 9.7 17.7 0.08 4.72 4.67 90 1009.9
20260501223025 16 66 9.7 17.7 0.08 4.72 4.67 90 1009.7
20260501222750 16 59 11.3 24.1 0.08 4.72 4.67 91 1009.5
20260501222024 16 65 11.3 24.1 0.08 4.72 4.67 91 1009.4
20260501221523 16 69 9.7 20.9 0.08 4.72 4.67 90 1009.5
20260501221253 16 69 8.0 20.9 0.08 4.72 4.67 91 1009.7
20260501220525 16 61 8.0 20.9 0.08 4.72 4.67 91 1009.8
20260501220240 16 32 8.0 17.7 0.10 4.72 4.67 91 1009.8
20260501215525 16 46 8.0 17.7 0.15 4.72 4.67 91 1009.6
20260501215022 16 50 6.4 14.5 0.15 4.72 4.67 91 1009.6
20260501214522 16 36 6.4 16.1 0.13 4.67 4.62 91 1010.2
20260501214018 16 65 4.8 16.1 0.13 4.65 4.60 91 1010.0
20260501213521 16 63 6.4 16.1 0.15 4.65 4.60 91 1010.6
20260501212518 16 32 6.4 17.7 0.20 4.65 4.60 91 1009.8
20260501212018 16 41 4.8 11.3 0.25 4.65 4.60 91 1010.1
20260501211520 16 44 6.4 19.3 0.28 4.65 4.60 91 1010.1
20260501211014 16 47 9.7 19.3 0.33 4.65 4.60 91 1009.7
20260501210514 16 64 6.4 17.7 0.41 4.65 4.60 91 1009.1
20260501210015 17 63 3.2 12.9 0.41 4.62 4.57 90 1009.5
20260501205514 16 0 4.8 16.1 0.36 4.57 4.55 90 1009.4
20260501205238 16 0 8.0 17.7 0.46 4.57 4.52 90 1008.6
20260501204514 17 0 8.0 19.3 0.51 4.55 4.50 91 1008.3
20260501204015 17 0 9.7 19.3 0.61 4.52 4.47 90 1008.5
20260501203512 17 0 8.0 17.7 0.89 4.50 4.45 90 1008.4
20260501203011 17 0 8.0 17.7 0.97 4.47 4.42 90 1008.8
20260501202522 17 0 8.0 16.1 1.02 4.39 4.34 90 1008.7
20260501202511 17 0 8.0 16.1 1.02 4.45 4.39 90 1008.6
20260501201512 17 0 6.4 11.3 1.02 4.37 4.32 90 1009.1
20260501201013 17 0 4.8 11.3 0.99 4.32 4.27 90 1008.6
20260501200739 17 0 3.2 9.7 0.91 4.24 4.19 90 1009.0
20260501200011 17 0 4.8 14.5 0.91 4.22 4.17 90 1008.6
20260501195731 17 0 4.8 14.5 0.91 4.22 4.17 90 1008.5
20260501195008 17 0 1.6 8.0 0.84 4.11 4.11 90 1008.7
20260501194509 17 0 3.2 14.5 0.74 4.01 3.99 90 1008.6
20260501194009 17 0 6.4 14.5 0.66 3.91 3.86 90 1008.3
20260501193739 17 0 8.0 16.1 0.38 3.61 3.61 90 1008.0
20260501193008 17 0 6.4 16.1 0.43 3.51 3.45 90 1007.9
20260501192509 17 0 6.4 11.3 0.38 3.43 3.38 90 1009.0
20260501192006 17 0 6.4 12.9 0.33 3.38 3.33 90 1008.7
20260501191506 17 0 4.8 12.9 0.33 3.35 3.30 90 1008.6
20260501191006 17 0 3.2 12.9 0.38 3.33 3.28 90 1008.7
20260501190507 17 0 4.8 16.1 0.51 3.33 3.28 90 1007.9
20260501190008 17 0 4.8 16.1 0.64 3.30 3.25 90 1007.9
20260501185506 17 0 4.8 16.1 0.71 3.30 3.25 90 1007.8
20260501185007 17 0 6.4 16.1 0.69 3.28 3.23 90 1007.8
20260501184507 17 0 4.8 12.9 0.71 3.28 3.23 90 1008.5
20260501184234 17 0 4.8 11.3 0.71 3.25 3.20 89 1007.7
20260501183507 17 74 4.8 11.3 0.69 3.23 3.17 90 1008.5
20260501183010 17 0 3.2 9.7 0.53 3.07 3.05 89 1011.2
20260501182507 17 0 1.6 9.7 0.53 3.05 3.00 89 1010.3
20260501182008 17 0 3.2 12.9 0.53 3.05 3.00 89 1008.8
20260501181505 17 0 4.8 12.9 0.53 3.02 2.97 89 1007.9
20260501181003 17 0 4.8 12.9 0.56 2.95 2.92 89 1008.1
20260501180504 17 0 6.4 14.5 0.48 2.82 2.79 89 1009.1
20260501180001 17 0 6.4 17.7 0.48 2.67 2.62 89 1010.2
20260501175501 17 0 8.0 17.7 0.41 2.59 2.54 89 1010.1
20260501174959 17 0 8.0 19.3 0.43 2.59 2.54 89 1009.3
20260501174458 17 0 8.0 19.3 0.41 2.57 2.51 89 1009.0
20260501173948 17 0 6.4 14.5 0.38 2.54 2.49 89 1009.3
20260501173442 17 0 6.4 12.9 0.41 2.54 2.49 89 1009.7
20260501172937 17 0 6.4 12.9 0.41 2.54 2.49 89 1009.6
20260501172428 17 0 6.4 12.9 0.46 2.51 2.46 89 1009.5
20260501171921 17 0 6.4 16.1 0.64 2.51 2.46 89 1009.3
20260501171638 17 0 8.0 16.1 1.07 2.49 2.44 89 1009.3
20260501170904 17 0 9.7 19.3 1.07 2.39 2.34 89 1009.7
20260501170358 17 0 8.0 19.3 1.02 2.34 2.29 89 1010.1
20260501165853 17 0 6.4 16.1 0.86 2.18 2.13 89 1010.1
20260501165343 17 0 8.0 14.5 0.86 2.18 2.13 89 1010.5
20260501164838 17 32 9.7 20.9 0.84 2.16 2.11 89 1010.4
20260501164330 17 67 8.0 20.9 0.86 2.16 2.11 89 1010.1
20260501163822 17 65 4.8 11.3 0.86 2.16 2.11 89 1010.5